User: anonymous   Login
Location: Caltech
(34.1382°N, 118.1253°W)
Time: 03:14:00
(UTC-07:00)
Language:

Gurwin Techsat 1B - Orbit

View from above orbital plane
View from above orbital plane
View from above satellite
View from above satellite

Ground track
Ground track

The orbit data is extracted from the following two-line orbital elements,

1 25397U 98043D   16269.85819946  .00000004  00000-0  20449-4 0  9991
2 25397  98.5754 212.2268 0002323  66.6664 293.4759 14.23603257946183
Epoch (UTC): 25 September 2016 20:35:48
Eccentricity: 0.0002323
inclination: 98.5754°
perigee height: 811 km
apogee height: 815 km
right ascension of ascending node: 212.2268°
argument of perigee: 66.6664°
revolutions per day: 14.23603257
mean anomaly at epoch: 293.4759°
orbit number at epoch: 94618

The dashed part of the orbit path shows where the satellite is in the earth's shadow,  

DLR